Flag for Slovakia Weather past 2 weeks in Bratislava, Slovakia

Now
79 °F

Thundershowers. Broken clouds.


Feels Like: 81 °F
Forecast: 67 / 76 °F
Wind: 12 mph from Southeast

Location: Bratislava Ivanka

Current Time: Jul 30, 2014 at 1:55:19 PM

Latest Report: Jul 30, 2014 at 1:30 PM


Visibility: N/A

Pressure: 29.74 "Hg

Humidity: 70%

Dew point: 68 °F

Location of BratislavaLocation

Historic Weather in Bratislava — Graph

°F

Bratislava temperature yesterday

Maximum temperature yesterday: 77 °F (at 5:30 PM)
Minimum temperature yesterday: 64 °F (at 12:30 AM)
Average temperature yesterday: 70 °F

Past Weeks' High & Low Weather Summary

 TemperatureHumidityPressure
High90 °F (Jul 20, 3:00 PM)94% (Jul 22, 5:30 PM)30.09 "Hg (Jul 22, 5:30 PM)
Low59 °F (Jul 26, 6:00 AM)31% (Jul 16, 5:00 PM)29.68 "Hg (Jul 21, 4:30 PM)
Average74 °F65%29.92 "Hg
* Reported Jul 15 12:00 Noon — Jul 30 12:30 PM, Bratislava, Weather by CustomWeather, © 2014

Note: Actual official high and low records may vary slightly from our data, if they occured in-between our weather recording intervals... More about our weather records

Advertising

Bratislava weather history for previous 24 hours

 ConditionsComfort  
Time TempWeatherWind HumidityBarometerVisibility
12:30 PM
Jul 30
79 °FBroken clouds.7 mph65%29.77 "HgN/A
12:00 PM79 °FScattered clouds.8 mph65%29.77 "HgN/A
11:30 AM77 °FScattered clouds.8 mph69%29.77 "HgN/A
11:00 AM77 °FScattered clouds.10 mph74%29.77 "HgN/A
10:30 AM77 °FPassing clouds.10 mph69%29.77 "HgN/A
10:00 AM75 °FScattered clouds.8 mph74%29.77 "Hg6 mi
9:30 AM73 °FBroken clouds.6 mph74%29.77 "Hg5 mi
9:00 AM72 °FBroken clouds.6 mph83%29.77 "Hg4 mi
8:30 AM72 °FPartly sunny.6 mph83%29.77 "Hg4 mi
8:00 AM70 °FBroken clouds.5 mph83%29.77 "Hg4 mi
7:30 AM68 °FFog.5 mph88%29.77 "Hg3 mi
7:00 AM66 °FFog.3 mph94%29.77 "Hg2 mi
6:30 AM64 °FFog.6 mph94%29.77 "Hg1 mi
6:00 AM64 °FFog.5 mph94%29.77 "Hg1 mi
5:30 AM64 °FFog.6 mph94%29.74 "Hg2 mi
5:00 AM64 °FFog.6 mph94%29.74 "Hg2 mi
4:30 AM64 °FPassing clouds.3 mph94%29.74 "Hg4 mi
4:00 AM64 °FPassing clouds.3 mph94%29.77 "Hg4 mi
3:30 AM66 °FPassing clouds.5 mph88%29.77 "Hg5 mi
3:00 AM66 °FPassing clouds.6 mph88%29.77 "Hg5 mi
2:30 AM66 °FPassing clouds.5 mph88%29.77 "Hg6 mi
2:00 AM66 °FPassing clouds.3 mph88%29.77 "HgN/A
1:30 AM66 °FPassing clouds.2 mph94%29.77 "HgN/A
1:00 AM68 °FPassing clouds.9 mph88%29.77 "HgN/A
12:30 AM68 °FPassing clouds.7 mph88%29.77 "HgN/A
12:00 AM68 °FClear.6 mph88%29.77 "Hg10 mi
11:30 PM
Jul 29
68 °FClear.6 mph88%29.77 "Hg10 mi
11:00 PM70 °FClear.6 mph83%29.77 "Hg10 mi
10:30 PM70 °FClear.7 mph83%29.77 "Hg10 mi
10:00 PM72 °FClear.7 mph83%29.74 "Hg10 mi
9:30 PM72 °FPassing clouds.7 mph83%29.74 "HgN/A
9:00 PM73 °FScattered clouds.8 mph78%29.74 "HgN/A
8:30 PM73 °FScattered clouds.6 mph78%29.74 "HgN/A
8:00 PM75 °FPassing clouds.7 mph74%29.74 "HgN/A
7:30 PM77 °FPassing clouds.7 mph69%29.74 "HgN/A
7:00 PM77 °FPassing clouds.9 mph69%29.74 "HgN/A
6:30 PM77 °FPassing clouds.7 mph65%29.74 "HgN/A
6:00 PM75 °FPassing clouds.5 mph69%29.74 "HgN/A
5:30 PM77 °FPassing clouds.7 mph65%29.74 "HgN/A
5:00 PM75 °FScattered clouds.2 mph74%29.77 "HgN/A
4:30 PM75 °FPassing clouds.3 mph74%29.77 "HgN/A
4:00 PM73 °FScattered clouds.8 mph74%29.77 "HgN/A
3:30 PM73 °FScattered clouds.7 mph83%29.77 "HgN/A
3:00 PM70 °FSprinkles. Broken clouds.9 mph83%29.80 "HgN/A
2:30 PM73 °FThundershowers. Partly sunny.5 mph78%29.80 "HgN/A
2:00 PM75 °FThundershowers. Scattered clouds.7 mph74%29.80 "HgN/A
1:30 PM72 °FScattered clouds.8 mph88%29.80 "HgN/A
1:00 PM70 °FThundershowers. Partly sunny.6 mph88%29.83 "HgN/A
Weather by CustomWeather, © 2014

See weather overviewHow to use our weather pages